ONEWEB-0686, 56721

Orbit data source: Space-Track

ONEWEB-0686, 56721 is a payload satellite owned by One Web (NAA) (UK) in LEO that was launched on Sat, 20 May 2023 UTC via an FALCON 9 launch vehicle from the Air Force Western Test Range (AFWTR). Payloads include a variety of satellites, spacecraft, and rockets equipped with specific instruments for various scientific and technological missions. These include communications satellites like Starlink; space stations such as the ISS; scientific satellites like the Hubble; Earth observation satellites from companies like Planet Labs, Umbra, and HawkEye 360; GPS; miniature CubeSats for education and research; and military/defense satellites.

Loading next visibility...
ONEWEB-0686 details
Identifier
56721, 2023-068M
Orbit
LEO
Last TLE update6 hours ago
Origin
Flag of UKOne Web (NAA) (UK)
ManufacturerOne Web
MissionOperational Commercial Communications
Bus & MotorARROW, Unknown motor
Mass148 kg wet, ~140 kg dry
Launch date (UTC)
2023-05-20 (2 years ago)
Launch vehicle
FALCON 9
Launch site
Air Force Western Test Range (AFWTR)
Object type
Payload
Rocket body
Debris
Shape & HBRTrap Box + 2 Pan, 5 m
Radar Cross Section2.032 m², Medium (>0.1 m² and < 1m²)

Expand to show TLE details & history

TLE from 6 hours ago
0 ONEWEB-0686
1 56721U 23068M   25015.40039356  .00000121  00000-0  28184-3 0  9993
2 56721  87.9109 331.9858 0002064  89.6457 270.4910 13.16593486 84286
Epoch: 2025-01-15T09:36Z
Definitive object data (Epoch: 2025-01-15T09:36:34.003Z)
Latitude-0.00007°
Longitude72.75084°
Altitude1,200.643 km
Speed7.254 km/s
True Right ascension22h 07m 56s
True Declination0° 00' 00"
Sunlit
Object was in daylight at TLE epoch
Visualization TLE readout
Latitude61.26561°
Longitude76.49857°
Altitude1,206.91 km
Speed7.257 km/s
Apparent Right ascension01h 44m 10s
Apparent Declination21° 56' 59"
Sunlit
Object is in daylight
Visualization observer readout
Local Sidereal Time16:04:18
Azimuth34.524° NE
Elevation-20.038°
Doppler factor1
Orbital elements
Apogee altitude1,196.433 km
Perigee altitude1,193.307 km
Semi-major axis7,573.007 km
Eccentricity0.0002064
Inclination87.9109°
RAAN331.9858°
Arg. of periapsis89.6457°
True anomaly270.46735°
Mean anomaly270.491°
Eccentric anomaly270.47917°
Mean motion3.29337 °/min
BSTAR0.00028184
Orbital period109.31 mins
Loading maneuver chart data...
Loading historical data...
Loading historical data...
Loading historical data...
Loading historical data...
Loading historical data...
Loading historical data...
Loading historical data...

ONEWEB-0686 Visibility forecast

Observer location: undefined°, undefined

Span
Click to sort rows by Start time (UTC) header in descending order
Start Az.
Max El. time (UTC)
Max El. Az.
Max El.
End time (UTC)
End Az.
12 mins2025-01-15 20:39:27.258Z147.471° SSE2025-01-15 20:45:27.258Z82.743° E34.129°2025-01-15 20:51:27.258Z16.605° NNE
10 mins2025-01-15 22:30:27.258Z226.751° WSW2025-01-15 22:35:27.258Z286.615° WNW28.77°2025-01-15 22:40:27.258Z337.729° N
10 mins2025-01-16 08:07:27.258Z28.029° NE2025-01-16 08:12:27.258Z86.861° E28.078°2025-01-16 08:17:27.258Z137.251° SSE
11 mins2025-01-16 09:56:27.258Z340.561° N2025-01-16 10:01:27.258Z280.23° WNW34.824°2025-01-16 10:07:27.258Z211.88° SW
|